Flag for U.S.A. Weather past 2 weeks in New York, New York, U.S.A.

Now
23 °F

Clear.


Feels Like: 23 °F
Forecast: 17 / 35 °F
Wind: No wind

Location: New York City - Central Park

Current Time: Mar 3, 2015 at 6:55:20 AM

Latest Report: Mar 3, 2015 at 5:51 AM


Visibility: 10 mi

Pressure: 30.40 "Hg

Humidity: 53%

Dew point: 8 °F

Location of New YorkLocation

Historic Weather in New York — Graph

°F

New York temperature yesterday

Maximum temperature yesterday: 38 °F (at 1:51 PM)
Minimum temperature yesterday: 27 °F (at 11:51 PM)
Average temperature yesterday: 33 °F

Past Weeks' High & Low Weather Summary

 TemperatureHumidityPressure
High43 °F (Feb 22, 2:51 PM)88% (Feb 21, 11:51 PM)30.81 "Hg (Feb 21, 11:51 PM)
Low2 °F (Feb 20, 5:51 AM)23% (Feb 16, 2:51 PM)29.71 "Hg (Feb 19, 12:51 AM)
Average23 °F49%30.18 "Hg
* Reported Feb 16 5:51 AM — Mar 3 5:51 AM, New York, Weather by CustomWeather, © 2015

Note: Actual official high and low records may vary slightly from our data, if they occured in-between our weather recording intervals... More about our weather records

Advertising

New York weather history for previous 24 hours

 ConditionsComfort  
Time TempWeatherWind HumidityBarometerVisibility
5:51 AM
Tue, Mar 3
23 °FClear.No wind53%30.40 "Hg10 mi
4:51 AM24 °FClear.5 mph48%30.41 "Hg10 mi
3:51 AM25 °FClear.6 mph48%30.38 "Hg10 mi
2:51 AM25 °FClear.No wind48%30.38 "Hg10 mi
1:51 AM26 °FClear.No wind46%30.38 "Hg10 mi
12:51 AM27 °FClear.3 mph46%30.37 "Hg10 mi
11:51 PM
Mon, Mar 2
27 °FClear.6 mph46%30.37 "Hg10 mi
10:51 PM29 °FClear.9 mph43%30.34 "Hg10 mi
9:51 PM30 °FClear.16 mph40%30.32 "Hg10 mi
8:51 PM32 °FClear.7 mph36%30.29 "Hg10 mi
7:51 PM33 °FClear.9 mph36%30.27 "Hg10 mi
6:51 PM35 °FClear.12 mph35%30.25 "Hg10 mi
5:51 PM36 °FClear.9 mph35%30.20 "Hg10 mi
4:51 PM38 °FSunny.7 mph33%30.17 "Hg10 mi
3:51 PM38 °FSunny.9 mph33%30.16 "Hg10 mi
2:51 PM38 °FSunny.13 mph33%30.14 "Hg10 mi
1:51 PM38 °FSunny.3 mph34%30.13 "Hg10 mi
12:51 PM36 °FSunny.13 mph37%30.14 "Hg10 mi
11:51 AM36 °FSunny.12 mph38%30.15 "Hg10 mi
10:51 AM34 °FMore clouds than sun.15 mph50%30.15 "Hg10 mi
9:51 AM35 °FPassing clouds.9 mph56%30.12 "Hg9 mi
8:51 AM34 °FOvercast.N/A70%30.10 "Hg6 mi
7:51 AM33 °FMostly cloudy.6 mph72%30.07 "Hg5 mi
6:51 AM32 °FOvercast.6 mph75%30.03 "Hg6 mi
Weather by CustomWeather, © 2015

See weather overviewHow to use our weather pages